Location: Newark
(9.4667°S, 159.8167°E)
Time: 08:07:16
(UTC+00:00)

Courier 1B Rocket - Pass Details

Date: 22 November 2019
Orbit: 921 x 1202 km, 28.2° (Epoch: 15 December)

Event Time Altitude Azimuth Distance (km) Brightness Sun altitude
Rises 00:40:25 0° 279° (W) 3,556 7.9 77.7°
Reaches altitude 10° 00:44:49 10° 308° (NW) 2,637 7.3 78.2°
Maximum altitude 00:47:19 12° 332° (NNW) 2,484 7.2 78.5°
Drops below altitude 10° 00:49:52 10° 355° (N) 2,685 7.3 78.7°
Sets 00:54:29 0° 24° (NNE) 3,692 7.9 79.0°
